Location: Unspecified
(0.0000°N, 0.0000°E)
Time: 04:13:51
(UTC+00:00)

ISS - Visible Passes

Search period start: 28 July 2014 00:00
Search period end: 07 August 2014 00:00
Orbit: 411 x 420 km, 51.6° (Epoch: 27 July)

Date Brightness Start Highest point End Pass type
(mag) Time Alt. Az. Time Alt. Az. Time Alt. Az.
30 Jul -1.8 18:54:44 10° S 18:57:08 19° SE 18:57:08 19° SE visible
31 Jul -1.3 19:41:57 10° WSW 19:44:53 29° NW 19:46:51 16° N visible
01 Aug -3.2 18:52:49 10° SW 18:56:07 80° NW 18:59:24 10° NNE visible
03 Aug -0.5 05:40:08 10° N 05:42:55 24° NE 05:45:41 10° ESE visible
03 Aug 0.0 18:53:01 10° W 18:55:03 15° NW 18:57:05 10° NNW visible
04 Aug 0.4 04:53:13 10° NE 04:54:06 11° NE 04:54:59 10° ENE visible
05 Aug -3.2 05:38:32 10° NW 05:41:49 59° SW 05:45:07 10° SSE visible
06 Aug -2.4 04:49:47 10° NNW 04:53:01 50° NE 04:56:17 10° SE visible
